Find Hai Yang 4-01

NORAD ID: 61936 Int'l Des: 2024-208 Owner: GYZ/CASC Country: CN operational
LEOCIRCULARRETROGRADESSO

Aktuelle Ansicht

3D-Globus wird geladen...

Über Hai Yang 4-01

Beschreibung wird geladen...

Nächste Überflüge

Passes for default location (London). Set your location on the main map for personalized predictions.

Höhenverlauf

Loading altitude history...

Zweizeiliger Elementsatz

1 61936U 24208A 26150.60218735 -.00000038 00000-0 18526-5 0 9996
2 61936 98.0031 158.6006 0001180 134.9525 225.1779 14.73279276 82857
Epoch: 30. Mai 2026 • Age: 9 hours

Aktueller Status

Höhe 678.1 km
Geschwindigkeit 7.52 km/s
Subsatellitenpunkt -74.01°S, 64.86°E
Startdatum 13. Nov. 2024
Alter 1.5 years
Typ other

Technische Details

Klassifizierung Payload
Masse 1500.00 kg
Trockenmasse 1500.00 kg
Gesamtmasse 1500.00 kg
Länge 1.00 m
Durchmesser 1.00 m
Spannweite 4.00 m
Form Box + 2 Pan
Hersteller CAST
Bus-Typ CAST-968
Phasenstatus In Orbit
Besitzer/Staat GYZ/CASC/CN

Most Searched